• In Portugal
  • List of Countries
  • For 7 days
  • Water Temperature
  • Satellite Maps
  • Weather Map
  • Weather Widgets
  • user-avatar
    Login

    Hourly Weather Tema

    Today, 23 August, Wednesday

    Time Temperature Precipitation Wind Pressure Humidity
    00:00 +26°C° 0 mm 4 mps 758 mmHg 81%
    01:00 +25°C° 0 mm 5 mps 758 mmHg 83%
    02:00 +25°C° 0 mm 5 mps 758 mmHg 84%
    03:00 +25°C° 0 mm 5 mps 758 mmHg 86%
    04:00 +25°C° 0 mm 5 mps 758 mmHg 88%
    05:00 +23°C° 0 mm 4 mps 758 mmHg 89%
    06:00 +23°C° 0 mm 4 mps 758 mmHg 91%
    07:00 +26°C° 0 mm 4 mps 758 mmHg 83%
    08:00 +28°C° 0 mm 4 mps 759 mmHg 75%
    09:00 +29°C° 0 mm 4 mps 759 mmHg 67%
    10:00 +30°C° 0 mm 4 mps 759 mmHg 64%
    11:00 +32°C° 0 mm 4 mps 759 mmHg 61%
    12:00 +33°C° 0 mm 4 mps 759 mmHg 57%
    13:00 +33°C° 0 mm 4 mps 758 mmHg 56%
    14:00 +33°C° 0 mm 4 mps 757 mmHg 55%
    15:00 +33°C° 0 mm 5 mps 757 mmHg 54%
    16:00 +33°C° 0 mm 5 mps 757 mmHg 58%
    17:00 +32°C° 0 mm 5 mps 757 mmHg 62%
    18:00 +30°C° 0 mm 5 mps 757 mmHg 66%
    19:00 +29°C° 0 mm 5 mps 758 mmHg 69%
    20:00 +28°C° 0 mm 5 mps 758 mmHg 73%
    21:00 +27°C° 0 mm 4 mps 759 mmHg 77%
    22:00 +27°C° 0 mm 4 mps 759 mmHg 79%
    23:00 +26°C° 0 mm 4 mps 759 mmHg 80%

    Tomorrow, 24 August, Thursday

    Time Temperature Precipitation Wind Pressure Humidity
    00:00 +26°C° 0 mm 4 mps 759 mmHg 82%
    01:00 +26°C° 0 mm 5 mps 758 mmHg 83%
    02:00 +25°C° 0 mm 5 mps 758 mmHg 84%
    03:00 +25°C° 0 mm 5 mps 757 mmHg 85%
    04:00 +25°C° 0 mm 5 mps 757 mmHg 86%
    05:00 +25°C° 0 mm 5 mps 757 mmHg 87%
    06:00 +23°C° 0 mm 5 mps 758 mmHg 88%
    07:00 +26°C° 0 mm 5 mps 758 mmHg 81%
    08:00 +28°C° 0 mm 5 mps 758 mmHg 74%
    09:00 +29°C° 0 mm 5 mps 759 mmHg 67%
    10:00 +30°C° 0 mm 5 mps 759 mmHg 63%
    11:00 +33°C° 0 mm 5 mps 759 mmHg 59%
    12:00 +34°C° 0 mm 5 mps 759 mmHg 54%
    13:00 +33°C° 0 mm 6 mps 758 mmHg 56%
    14:00 +33°C° 0 mm 6 mps 757 mmHg 58%
    15:00 +33°C° 0 mm 7 mps 757 mmHg 59%
    16:00 +32°C° 0 mm 7 mps 757 mmHg 64%
    17:00 +30°C° 0 mm 7 mps 757 mmHg 69%
    18:00 +29°C° 0 mm 6 mps 757 mmHg 73%
    19:00 +28°C° 0 mm 6 mps 758 mmHg 76%
    20:00 +27°C° 0 mm 6 mps 758 mmHg 79%
    21:00 +27°C° 0 mm 6 mps 759 mmHg 82%
    22:00 +26°C° 0 mm 6 mps 759 mmHg 84%
    23:00 +26°C° 0 mm 6 mps 759 mmHg 85%

    Day after tomorrow, 25 August, Friday

    Time Temperature Precipitation Wind Pressure Humidity
    00:00 +26°C° 0 mm 6 mps 759 mmHg 87%
    01:00 +25°C° 0 mm 5 mps 758 mmHg 87%
    02:00 +25°C° 0 mm 5 mps 758 mmHg 88%
    03:00 +25°C° 0 mm 5 mps 757 mmHg 89%
    04:00 +25°C° 0 mm 5 mps 758 mmHg 88%
    05:00 +25°C° 0 mm 5 mps 758 mmHg 88%
    06:00 +25°C° 0 mm 5 mps 758 mmHg 88%
    07:00 +26°C° 0 mm 5 mps 758 mmHg 83%
    08:00 +27°C° 0 mm 5 mps 759 mmHg 77%
    09:00 +29°C° 0 mm 5 mps 759 mmHg 72%
    10:00 +29°C° 0 mm 5 mps 759 mmHg 69%
    11:00 +30°C° 0 mm 5 mps 759 mmHg 66%
    12:00 +32°C° 0 mm 5 mps 758 mmHg 63%
    13:00 +32°C° 0 mm 6 mps 757 mmHg 63%
    14:00 +32°C° 0 mm 6 mps 757 mmHg 63%
    15:00 +32°C° 0 mm 7 mps 756 mmHg 63%
    16:00 +30°C° 0 mm 7 mps 756 mmHg 66%
    17:00 +30°C° 0 mm 7 mps 756 mmHg 69%
    18:00 +29°C° 0 mm 7 mps 756 mmHg 72%
    19:00 +28°C° 0 mm 7 mps 757 mmHg 75%
    20:00 +28°C° 0 mm 6 mps 758 mmHg 78%
    21:00 +27°C° 0 mm 6 mps 758 mmHg 81%
    22:00 +27°C° 0 mm 6 mps 758 mmHg 82%
    23:00 +26°C° 0 mm 6 mps 758 mmHg 83%

    26 August, Saturday

    Time Temperature Precipitation Wind Pressure Humidity
    00:00 +26°C° 0 mm 6 mps 758 mmHg 84%
    01:00 +26°C° 0.2 mm 6 mps 758 mmHg 86%
    02:00 +24°C° 0.2 mm 6 mps 758 mmHg 88%
    03:00 +24°C° 0.2 mm 6 mps 757 mmHg 91%
    04:00 +25°C° 0 mm 5 mps 757 mmHg 90%
    05:00 +25°C° 0 mm 5 mps 758 mmHg 90%
    06:00 +25°C° 0 mm 5 mps 758 mmHg 89%
    07:00 +26°C° 0.1 mm 5 mps 759 mmHg 85%
    08:00 +27°C° 0.1 mm 5 mps 759 mmHg 80%
    09:00 +28°C° 0.1 mm 4 mps 760 mmHg 76%
    10:00 +29°C° 0.1 mm 4 mps 759 mmHg 73%
    11:00 +30°C° 0.1 mm 5 mps 759 mmHg 70%
    12:00 +32°C° 0.1 mm 5 mps 758 mmHg 68%
    13:00 +32°C° 0.1 mm 5 mps 757 mmHg 67%
    14:00 +32°C° 0.1 mm 6 mps 757 mmHg 66%
    15:00 +32°C° 0.1 mm 6 mps 756 mmHg 66%
    16:00 +30°C° 0 mm 6 mps 757 mmHg 70%
    17:00 +29°C° 0 mm 6 mps 757 mmHg 75%
    18:00 +28°C° 0 mm 7 mps 757 mmHg 79%
    19:00 +28°C° 0 mm 6 mps 758 mmHg 82%
    20:00 +27°C° 0 mm 6 mps 758 mmHg 85%
    21:00 +26°C° 0 mm 6 mps 759 mmHg 88%
    22:00 +26°C° 0 mm 6 mps 759 mmHg 88%
    23:00 +26°C° 0 mm 6 mps 759 mmHg 87%

    27 August, Sunday

    Time Temperature Precipitation Wind Pressure Humidity
    00:00 +26°C° 0 mm 6 mps 758 mmHg 87%
    01:00 +26°C° 0 mm 6 mps 758 mmHg 87%
    02:00 +26°C° 0 mm 6 mps 758 mmHg 87%
    03:00 +26°C° 0 mm 6 mps 757 mmHg 88%
    04:00 +26°C° 0.1 mm 5 mps 758 mmHg 88%
    05:00 +25°C° 0.1 mm 5 mps 758 mmHg 89%
    06:00 +25°C° 0.1 mm 5 mps 759 mmHg 90%
    07:00 +26°C° 0.7 mm 5 mps 759 mmHg 85%
    08:00 +27°C° 0.7 mm 5 mps 760 mmHg 81%
    09:00 +28°C° 0.7 mm 4 mps 760 mmHg 77%
    10:00 +28°C° 0.3 mm 4 mps 760 mmHg 79%
    11:00 +27°C° 0.3 mm 4 mps 759 mmHg 82%
    12:00 +27°C° 0.3 mm 4 mps 759 mmHg 85%
    13:00 +27°C° 0 mm 5 mps 758 mmHg 85%
    14:00 +27°C° 0 mm 5 mps 758 mmHg 84%
    15:00 +27°C° 0 mm 5 mps 757 mmHg 83%
    16:00 +27°C° 0 mm 6 mps 757 mmHg 83%
    17:00 +27°C° 0 mm 6 mps 758 mmHg 84%
    18:00 +27°C° 0 mm 6 mps 758 mmHg 84%
    19:00 +27°C° 0 mm 5 mps 758 mmHg 86%
    20:00 +26°C° 0 mm 5 mps 759 mmHg 88%
    21:00 +26°C° 0 mm 5 mps 759 mmHg 90%
    22:00 +25°C° 0 mm 5 mps 759 mmHg 90%
    23:00 +25°C° 0 mm 5 mps 759 mmHg 91%

    28 August, Monday

    Time Temperature Precipitation Wind Pressure Humidity
    00:00 +25°C° 0 mm 4 mps 759 mmHg 92%
    01:00 +25°C° 0 mm 4 mps 758 mmHg 93%
    02:00 +25°C° 0 mm 4 mps 758 mmHg 94%
    03:00 +23°C° 0 mm 4 mps 758 mmHg 94%
    04:00 +23°C° 0 mm 4 mps 758 mmHg 94%
    05:00 +23°C° 0 mm 4 mps 759 mmHg 94%
    06:00 +23°C° 0 mm 4 mps 759 mmHg 93%
    07:00 +26°C° 0 mm 4 mps 759 mmHg 86%
    08:00 +28°C° 0 mm 4 mps 759 mmHg 79%
    09:00 +29°C° 0 mm 4 mps 760 mmHg 71%
    10:00 +30°C° 0 mm 4 mps 759 mmHg 69%
    11:00 +30°C° 0 mm 4 mps 759 mmHg 67%
    12:00 +32°C° 0 mm 4 mps 759 mmHg 65%
    13:00 +32°C° 0 mm 4 mps 758 mmHg 65%
    14:00 +32°C° 0 mm 4 mps 758 mmHg 65%
    15:00 +32°C° 0 mm 4 mps 757 mmHg 65%
    16:00 +30°C° 0 mm 5 mps 757 mmHg 70%
    17:00 +29°C° 0 mm 5 mps 757 mmHg 75%
    18:00 +28°C° 0 mm 5 mps 758 mmHg 79%
    19:00 +27°C° 0 mm 5 mps 758 mmHg 82%
    20:00 +27°C° 0 mm 5 mps 759 mmHg 84%
    21:00 +26°C° 0 mm 4 mps 759 mmHg 86%
    22:00 +26°C° 0 mm 5 mps 759 mmHg 86%
    23:00 +26°C° 0 mm 5 mps 759 mmHg 87%
    Show more